TimeGMT,TemperatureF,Dew PointF,Humidity,Sea Level PressureIn,VisibilityMPH,Wind Direction,Wind SpeedMPH,Gust SpeedMPH,PrecipitationIn,Events,Conditions,WindDirDegrees,DateUTC
12:00 AM,48,47,96,30.50,,SSW,15.7,,,,,200,2013-01-04 00:00:00
6:00 AM,47,47,98,30.48,7,SSW,17.9,,,Rain,Light Drizzle,200,2013-01-04 06:00:00
6:00 AM,48.2,46.4,93,30.45,6.2,SSW,17.3,-,N/A,,Light Drizzle,200,2013-01-04 06:00:00
7:00 AM,46.4,46.4,100,30.45,5.6,South,13.8,-,N/A,,Light Drizzle,190,2013-01-04 07:00:00
8:00 AM,46.4,46.4,100,30.45,2.2,SSW,12.7,-,N/A,,Light Drizzle,200,2013-01-04 08:00:00
8:30 AM,46.4,46.4,100,30.48,6.2,SSW,11.5,-,N/A,,Overcast,200,2013-01-04 08:30:00
9:00 AM,46.4,46.4,100,30.45,0.4,South,10.4,-,N/A,Fog,Fog,180,2013-01-04 09:00:00
9:30 AM,46.4,46.4,100,30.45,0.4,South,17.3,-,N/A,Fog,Fog,190,2013-01-04 09:30:00
10:00 AM,46.4,46.4,100,30.45,0.2,South,18.4,-,N/A,,Light Drizzle,190,2013-01-04 10:00:00
10:30 AM,46.4,46.4,100,30.45,4.3,South,15.0,-,N/A,,Overcast,190,2013-01-04 10:30:00
11:00 AM,48.2,46.4,93,30.48,6.2,South,13.8,-,N/A,,Light Drizzle,180,2013-01-04 11:00:00
11:30 AM,48.2,46.4,93,30.48,6.2,South,13.8,-,N/A,,Mostly Cloudy,180,2013-01-04 11:30:00
12:00 PM,48.2,46.4,93,30.48,6.2,South,13.8,-,N/A,,Mostly Cloudy,180,2013-01-04 12:00:00
12:30 PM,48.2,46.4,93,30.45,6.2,South,13.8,-,N/A,,Mostly Cloudy,180,2013-01-04 12:30:00
1:00 PM,48.2,46.4,93,30.45,6.2,South,12.7,24.2,N/A,,Mostly Cloudy,180,2013-01-04 13:00:00
1:30 PM,48.2,46.4,93,30.45,6.2,SSE,10.4,-,N/A,,Overcast,160,2013-01-04 13:30:00
2:00 PM,48.2,46.4,93,30.45,6.2,SSE,11.5,-,N/A,,Overcast,160,2013-01-04 14:00:00
2:30 PM,48.2,46.4,93,30.42,6.2,South,16.1,-,N/A,,Overcast,170,2013-01-04 14:30:00
3:00 PM,48.2,46.4,93,30.42,6.2,South,15.0,-,N/A,,Overcast,170,2013-01-04 15:00:00
3:30 PM,48.2,46.4,93,30.42,6.2,South,19.6,-,N/A,,Overcast,170,2013-01-04 15:30:00
4:00 PM,48.2,46.4,93,30.42,6.2,South,15.0,-,N/A,,Overcast,170,2013-01-04 16:00:00
4:30 PM,48.2,46.4,93,30.42,6.2,South,12.7,-,N/A,,Overcast,170,2013-01-04 16:30:00
5:00 PM,48.2,46.4,93,30.39,6.2,SSE,11.5,-,N/A,,Overcast,160,2013-01-04 17:00:00
6:00 PM,48,46,90,30.41,19,South,15.7,,,,Overcast,170,2013-01-04 18:00:00